Current weather by "City, St" or "zip code"  
 
Advertise Here

Current Conditions: McCook, McCook Municipal Airport, NE

Fair


62.0 F

Last Updated on May 30 2020, 3:53 am CDT
Humidity: 67%
Wind Speed: E 11.5 mph
Barometer 30.13 in
Dewpoint: 51.1 F
Visibility: 10.00 mi
Precip: --
Heat Index: NA
Wind Chill: 61 F
Current conditions at:

McCook, McCook Municipal Airport, NE (KMCK)

Lat: 40.20306 Lon: 100.58833

Local Radar Image active severe weather and emergency alerts image image weather storm and storm spotter reports image weather observation monitoring service image
Local
Radar
Active
Alerts
Storm Reports Obs
Monitoring

Sign-up For Email & Text Message Weather Alert Notification Services


Advertise Here

Observation History for McCook, McCook Municipal Airport, NE


Time Wind
(mph)
Vis
(mi)
Weather Precip (in) Temperature (F) Relative
Humidity
Wind
Chill
(F)
Heat
Index
(F)
Pressure
Air Dwpt altimeter
(in)
sea level
(mb)
Rmks
3:53 am CDT E 11.5 10.00 Fair -- 62.0 51.1 67% 61 NA 30.13 1018.2
2:53 am CDT SE 8.1 10.00 Fair -- 61.0 51.1 70% 60 NA 30.13 1018.6
1:53 am CDT E 9.2 10.00 Fair -- 61.0 51.1 70% 60 NA 30.13 1018.5
12:53 am CDT SE 11.5 10.00 Fair -- 62.0 52.0 70% 61 NA 30.15 1019.3
11:53 pm CDT SE 12.7 10.00 Fair -- 64.0 52.0 65% NA NA 30.17 1019.7
10:53 pm CDT SE 10.4 10.00 Fair -- 65.0 53.1 66% NA NA 30.16 1019.8
9:53 pm CDT E 10.4 10.00 Fair -- 67.0 53.1 61% NA NA 30.15 1019.4
8:53 pm CDT SE 12.7 10.00 Fair -- 72.0 53.1 52% NA NA 30.12 1018.5
7:53 pm CDT SE 11.5 10.00 Fair -- 76.0 53.1 45% NA NA 30.11 1018.0
6:53 pm CDT SE 12.7 G 23.0 10.00 Fair -- 79.0 53.1 41% NA NA 30.12 1018.1
5:53 pm CDT SE 13.8 G 23.0 10.00 Fair -- 80.0 53.1 39% NA 80 30.13 1018.5
4:53 pm CDT S 11.5 G 21.9 10.00 Fair -- 80.0 54.0 41% NA 80 30.14 1018.8
3:53 pm CDT S 12.7 10.00 Fair -- 79.0 53.1 41% NA NA 30.15 1019.4
2:53 pm CDT SE 10.4 G 19.6 10.00 Fair -- 78.0 52.0 40% NA NA 30.17 1020.1
1:53 pm CDT S 9.2 G 25.3 10.00 Fair -- 77.0 51.1 40% NA NA 30.18 1020.5
12:53 pm CDT SE 11.5 G 19.6 10.00 Fair -- 75.0 48.9 40% NA NA 30.21 1021.4
11:53 am CDT S 13.8 10.00 Fair -- 73.0 46.0 38% NA NA 30.23 1022.1
10:53 am CDT SE 11.5 10.00 Fair -- 70.0 45.0 41% NA NA 30.25 1023.0
9:53 am CDT S 8.1 10.00 Fair -- 67.0 46.0 47% NA NA 30.26 1023.4
8:53 am CDT S 5.8 10.00 Fair -- 62.0 48.0 60% 62 NA 30.27 1023.8
7:53 am CDT S 3.5 10.00 Partly Cloudy -- 58.0 52.0 81% NA NA 30.27 1023.4
6:53 am CDT W 3.5 10.00 Overcast -- 56.0 52.0 87% NA NA 30.27 1023.5
5:53 am CDT SW 3.5 10.00 Mostly Cloudy -- 55.0 53.1 93% NA NA 30.25 1022.7
4:53 am CDT SW 3.5 10.00 Overcast -- 55.0 52.0 90% NA NA 30.24 1022.7

Regional Weather Observation


Imperial, Imperial Municipal Airport, NE (KIML)

Light Rain
58.0 F

North Platte, North Platte Regional Airport, NE (KLBF)

Light Rain
58.0 F

Lexington, Jim Kelly Field Airport, NE (KLXN)

Fair
58.0 F

Colby Shaltz Field Airport, KS (KCBK)

Fair
59.0 F

ST FRANCIS, KS (KSYF)

Partly Cloudy
62.0 F

Brewster Field Airport, NE (KHDE)

Fair
57.0 F